CW4629 Weather Reports


Display with metric or nautical units.
time (UTC)temp
F
wind
direction
speed
MPH
gust
MPH
rain 1hr
in
rain 24hr
in
rain mn
in
humidity
%
barometer
mb
20260505013412 73 232 13.0 22.0 0.00 0.00 0.00 16 1009.8
20260505011430 72 228 6.0 10.0 0.00 0.00 0.00 17 1009.9
20260505011328 72 221 5.0 10.0 0.00 0.00 0.00 17 1010.0
20260505010311 73 207 7.0 10.0 0.00 0.00 0.00 17 1010.0
20260505005410 73 217 9.0 13.0 0.00 0.00 0.00 16 1010.0
20260505004426 73 217 8.0 13.0 0.00 0.00 0.00 17 1009.9
20260505003512 73 225 11.0 15.0 0.00 0.00 0.00 17 1009.9
20260505002528 73 231 11.0 19.0 0.00 0.00 0.00 18 1009.9
20260505001610 73 228 10.0 17.0 0.00 0.00 0.00 18 1009.9
20260505000629 73 221 11.0 18.0 0.00 0.00 0.00 20 1010.0
20260504235612 74 236 12.0 19.0 0.00 0.00 0.00 20 1009.9
20260504235529 74 233 10.0 16.0 0.00 0.00 0.00 20 1009.9
20260504234511 75 229 12.0 19.0 0.00 0.00 0.00 21 1009.8
20260504233527 75 233 12.0 19.0 0.00 0.00 0.00 22 1009.8
20260504232527 76 223 5.0 8.0 0.00 0.00 0.00 23 1009.8
20260504230511 75 216 9.0 14.0 0.00 0.00 0.00 24 1009.7
20260504230412 75 227 8.0 14.0 0.00 0.00 0.00 24 1009.8
20260504225410 75 234 9.0 14.0 0.00 0.00 0.00 25 1009.8
20260504224510 75 245 9.0 18.0 0.00 0.00 0.00 25 1009.8
20260504223511 76 242 10.0 13.0 0.00 0.00 0.00 24 1009.7
20260504223426 76 209 9.0 12.0 0.00 0.00 0.00 24 1009.7
20260504222425 76 229 14.0 19.0 0.00 0.00 0.00 24 1009.9
20260504221413 76 237 11.0 16.0 0.00 0.00 0.00 25 1009.7
20260504220510 76 238 11.0 20.0 0.00 0.00 0.00 24 1009.8
20260504215528 76 234 10.0 14.0 0.00 0.00 0.00 23 1009.9
20260504215426 76 232 14.0 21.0 0.00 0.00 0.00 24 1009.9
20260504214511 76 233 13.0 21.0 0.00 0.00 0.00 23 1009.9
20260504213528 76 210 13.0 21.0 0.00 0.00 0.00 22 1010.0
20260504212511 76 249 8.0 12.0 0.00 0.00 0.00 22 1009.9
20260504211527 76 222 9.0 17.0 0.00 0.00 0.00 22 1010.4
20260504210512 77 217 9.0 12.0 0.00 0.00 0.00 21 1010.4
20260504205511 76 218 5.0 8.0 0.00 0.00 0.00 21 1010.4
20260504204610 76 225 9.0 15.0 0.00 0.00 0.00 21 1010.4
20260504204526 76 222 12.0 18.0 0.00 0.00 0.00 21 1010.6
20260504203613 76 275 7.0 13.0 0.00 0.00 0.00 22 1010.5
20260504202710 76 255 8.0 16.0 0.00 0.00 0.00 22 1010.6
20260504201727 76 255 9.0 13.0 0.00 0.00 0.00 23 1010.5
20260504200712 76 247 8.0 14.0 0.00 0.00 0.00 23 1010.6
20260504200626 76 244 11.0 17.0 0.00 0.00 0.00 23 1010.5
20260504195712 75 247 4.0 10.0 0.00 0.00 0.00 25 1010.5
20260504193910 76 205 9.0 13.0 0.00 0.00 0.00 25 1010.7
20260504193812 76 223 10.0 14.0 0.00 0.00 0.00 25 1010.7
20260504192811 76 224 12.0 17.0 0.00 0.00 0.00 26 1010.7
20260504191909 76 238 11.0 14.0 0.00 0.00 0.00 25 1010.7
20260504190926 77 207 9.0 14.0 0.00 0.00 0.00 24 1010.9
20260504190811 77 182 7.0 13.0 0.00 0.00 0.00 24 1010.8
20260504185910 78 211 10.0 16.0 0.00 0.00 0.00 23 1010.7
20260504184928 79 101 1.0 4.0 0.00 0.00 0.00 22 1010.9
20260504183911 78 191 8.0 13.0 0.00 0.00 0.00 21 1011.3
20260504181010 77 127 3.0 6.0 0.00 0.00 0.00 26 1011.5
20260504180929 77 121 4.0 8.0 0.00 0.00 0.00 26 1011.5
20260504175927 76 22 3.0 6.0 0.00 0.00 0.00 28 1011.5
20260504174926 76 104 2.0 5.0 0.00 0.00 0.00 28 1011.8
20260504173913 76 98 0.0 2.0 0.00 0.00 0.00 30 1011.9
20260504172928 75 157 0.0 1.0 0.00 0.00 0.00 30 1011.9
20260504171946 75 157 1.0 4.0 0.00 0.00 0.00 32 1011.9
20260504171030 74 191 2.0 4.0 0.00 0.00 0.00 32 1012.0
20260504160329 72 157 4.0 8.0 0.00 0.00 0.00 36 1012.2
20260504160249 72 160 1.0 7.0 0.00 0.00 0.00 37 1012.2
20260504150231 68 83 2.0 4.0 0.00 0.00 0.00 43 1012.1
20260504141230 60 292 0.0 0.0 0.00 0.00 0.00 56 1012.7
20260504140245 60 292 0.0 1.0 0.00 0.00 0.00 57 1012.8
20260504110429 61 344 1.0 1.0 0.00 0.00 0.00 54 1012.0
20260504081829 62 296 2.0 4.0 0.00 0.00 0.00 48 1012.5
20260504060145 68 270 2.0 4.0 0.00 0.00 0.00 38 1012.1
20260504045423 69 81 2.0 7.0 0.00 0.00 0.00 36 1012.1
20260504044439 69 66 4.0 7.0 0.00 0.00 0.00 36 1011.9
20260504043440 69 111 1.0 3.0 0.00 0.00 0.00 34 1012.4
20260504042423 69 80 2.0 7.0 0.00 0.00 0.00 34 1011.6
20260504042325 70 138 1.0 7.0 0.00 0.00 0.00 34 1011.6
20260504042223 70 21 2.0 7.0 0.00 0.00 0.00 34 1011.5
20260504041223 70 107 0.0 2.0 0.00 0.00 0.00 32 1011.6
20260504040223 71 67 0.0 1.0 0.00 0.00 0.00 32 1011.5
20260504035240 71 74 4.0 6.0 0.00 0.00 0.00 32 1011.4
20260504034239 72 27 6.0 11.0 0.00 0.00 0.00 32 1011.2
20260504034122 72 31 4.0 8.0 0.00 0.00 0.00 32 1011.1
20260504033222 72 62 5.0 8.0 0.00 0.00 0.00 32 1011.1
20260504030424 73 63 4.0 8.0 0.00 0.00 0.00 32 1010.7
20260504025423 73 64 11.0 17.0 0.00 0.00 0.00 31 1010.6
20260504024439 74 56 4.0 8.0 0.00 0.00 0.00 30 1010.5
20260504023524 74 62 9.0 12.0 0.00 0.00 0.00 28 1010.4
20260504022521 75 77 8.0 16.0 0.00 0.00 0.00 26 1010.2
20260504021538 76 109 4.0 6.0 0.00 0.00 0.00 23 1010.3
20260504015541 77 94 4.0 4.0 0.00 0.00 0.00 23 1009.9
20260504014538 77 157 0.0 1.0 0.00 0.00 0.00 22 1009.8
20260504013538 77 128 2.0 3.0 0.00 0.00 0.00 22 1009.5